Stations météo

Publicité
Cap Corse, France (7785): Température de l'air & dewpoint: 20.05.2019 17:00:00 - 26.05.2019 17:00:00 (CEST)Cap Corse, France (7785): Vitesse du vent & gusts: 20.05.2019 17:00:00 - 26.05.2019 17:00:00 (CEST)Cap Corse, France (7785): Direction du vent: 20.05.2019 17:00:00 - 26.05.2019 17:00:00 (CEST)Cap Corse, France (7785): reduced air pressure: 20.05.2019 17:00:00 - 26.05.2019 17:00:00 (CEST)Cap Corse, France (7785): visibility: 20.05.2019 17:00:00 - 26.05.2019 17:00:00 (CEST)Cap Corse, France (7785): Quantités de précipitations: 20.05.2019 17:00:00 - 26.05.2019 17:00:00 (CEST)
Date & Time tt [°C] td [°C] ff [km/h] ff [knt] fx [km/h] fx [knt] dd ppp [hPa] vv [km] rr [mm]
26.05.2019 17:00:00 - - - - - - - - - -
26.05.2019 16:00:00 16,2 14,4 25 13 41 22 E 1011,2 - 0,2
26.05.2019 15:00:00 16,3 15,2 24 13 37 20 ENE 1011,6 - 0,2
26.05.2019 14:00:00 17,3 15,8 13 7 18 10 E 1012,2 15 0,0
26.05.2019 13:00:00 17,3 14,4 11 6 22 12 E 1012,5 - 0,0
26.05.2019 12:00:00 17,7 14,6 16 8 27 15 E 1012,7 - 0,0
26.05.2019 11:00:00 18,0 13,3 17 9 31 17 E 1012,5 15 0,0
26.05.2019 10:00:00 17,7 11,7 19 10 42 23 ESE 1012,8 - 0,0
26.05.2019 09:00:00 18,0 10,6 16 9 35 19 E 1012,4 - 0,0
26.05.2019 08:00:00 17,7 11,5 20 11 29 16 SE 1012,2 15 0,0
26.05.2019 07:00:00 17,4 10,5 23 12 31 17 SE 1011,9 - 0,0
26.05.2019 06:00:00 17,0 12,1 10 5 37 20 E 1011,9 - 0,0
26.05.2019 05:00:00 19,4 6,1 30 16 51 28 SSE 1011,6 15 0,0
26.05.2019 04:00:00 17,9 10,8 40 21 56 30 SSE 1011,7 - 0,0
26.05.2019 03:00:00 17,8 10,7 34 18 48 26 SE 1012,0 - 0,0
26.05.2019 02:00:00 19,3 8,0 19 11 33 18 SSE 1012,4 - 0,0
26.05.2019 01:00:00 18,0 9,9 4 2 10 5 SSW 1013,0 - 0,0
26.05.2019 00:00:00 17,2 10,3 0 0 6 3 N 1013,5 - 0,0
25.05.2019 23:00:00 16,6 10,7 4 2 13 7 NNW 1013,9 - 0,0
25.05.2019 22:00:00 17,1 9,3 3 1 10 6 NNW 1014,0 - 0,0
25.05.2019 21:00:00 17,3 12,8 2 1 9 5 WSW 1013,6 - 0,0
25.05.2019 20:00:00 18,2 13,5 6 4 18 10 ESE 1013,3 - 0,0
25.05.2019 19:00:00 19,8 13,5 3 2 11 6 WSW 1012,8 - 0,0
25.05.2019 18:00:00 21,3 13,2 5 3 19 10 W 1012,6 - 0,0
25.05.2019 17:00:00 22,2 13,8 5 3 29 16 W 1012,3 15 0,0
25.05.2019 16:00:00 23,7 11,4 13 7 52 28 SW 1012,5 - 0,0
25.05.2019 15:00:00 22,5 10,9 26 14 59 32 SSE 1013,0 - 0,0
25.05.2019 14:00:00 22,5 12,1 21 12 46 25 SE 1013,7 15 0,0
25.05.2019 13:00:00 22,0 12,5 22 12 41 22 SSE 1014,3 - 0,0
25.05.2019 12:00:00 20,7 13,2 24 13 56 31 SSE 1014,0 - 0,0
25.05.2019 11:00:00 20,0 13,5 17 9 41 22 SE 1014,3 - 0,0
25.05.2019 10:00:00 21,0 14,4 16 9 40 22 ESE 1014,0 - 0,0
25.05.2019 09:00:00 18,9 13,7 17 9 32 17 ESE 1013,9 - 0,0
25.05.2019 08:00:00 17,5 13,0 24 13 42 23 SE 1013,7 15 0,0
25.05.2019 07:00:00 16,8 12,7 21 12 34 18 ESE 1013,6 - 0,0
25.05.2019 06:00:00 15,6 11,2 16 9 41 22 SE 1013,6 - 0,0
25.05.2019 05:00:00 15,6 12,0 23 12 31 17 SE 1013,8 15 0,0
25.05.2019 04:00:00 15,6 11,8 3 2 41 22 E 1013,8 - 0,0
25.05.2019 03:00:00 16,2 10,7 10 5 38 21 SSE 1013,4 - 0,0
25.05.2019 02:00:00 15,7 12,1 10 6 21 11 SSE 1013,7 - 0,0
25.05.2019 01:00:00 16,9 12,6 15 8 29 16 SE 1014,0 - 0,0
25.05.2019 00:00:00 15,5 13,0 18 10 24 13 ESE 1014,3 - 0,0
24.05.2019 23:00:00 15,4 13,4 9 5 14 8 E 1014,7 - 0,0
24.05.2019 22:00:00 15,4 13,1 3 2 11 6 WSW 1014,7 - 0,0
24.05.2019 21:00:00 15,9 14,4 5 3 13 7 SW 1014,2 - 0,0
24.05.2019 20:00:00 17,1 15,3 5 3 12 7 NE 1014,1 13 0,0
24.05.2019 19:00:00 18,2 15,3 7 4 13 7 NE 1014,0 - 0,0
24.05.2019 18:00:00 19,9 14,9 9 5 19 11 ENE 1013,9 - 0,0
24.05.2019 17:00:00 20,4 15,2 13 7 23 12 E 1014,1 15 0,0
24.05.2019 16:00:00 19,7 15,1 18 10 28 15 ENE 1014,5 - 0,0
24.05.2019 15:00:00 19,3 15,0 20 11 35 19 E 1014,7 - 0,0
24.05.2019 14:00:00 20,9 15,2 21 11 40 22 E 1014,9 12 0,0
24.05.2019 13:00:00 19,4 15,1 25 14 40 22 E 1015,4 - 0,0
24.05.2019 12:00:00 18,1 15,0 28 15 46 25 E 1015,6 - 0,0
24.05.2019 11:00:00 18,7 15,0 31 17 44 24 ENE 1015,5 12 0,0
24.05.2019 10:00:00 18,8 15,7 16 9 22 12 ENE 1015,7 - 0,0
24.05.2019 09:00:00 17,3 14,6 8 5 13 7 NE 1016,1 - 0,0
24.05.2019 08:00:00 17,8 14,3 7 4 16 9 N 1016,0 12 0,0
24.05.2019 07:00:00 15,8 13,8 7 4 11 6 WNW 1016,1 - 0,0
24.05.2019 06:00:00 14,7 13,2 4 2 9 5 E 1015,8 - 0,0
24.05.2019 05:00:00 15,0 13,5 3 1 14 7 SW 1015,7 12 0,0
24.05.2019 04:00:00 15,6 13,8 13 7 26 14 W 1015,9 - 0,0
24.05.2019 03:00:00 15,8 14,2 17 9 29 16 WSW 1016,1 - 0,0
24.05.2019 02:00:00 15,8 14,0 17 9 31 17 WSW 1016,4 - 0,0
24.05.2019 01:00:00 15,1 13,6 17 9 27 15 WSW 1016,7 - 0,0
24.05.2019 00:00:00 15,4 13,4 12 7 27 15 WSW 1016,8 - 0,0
23.05.2019 23:00:00 16,0 14,4 15 8 32 17 W 1017,0 - 0,0
23.05.2019 22:00:00 15,8 13,8 10 6 18 10 W 1017,1 - 0,0
23.05.2019 21:00:00 15,6 13,1 8 4 14 7 W 1016,7 - 0,0
23.05.2019 20:00:00 17,9 14,6 5 3 16 8 WNW 1016,4 - 0,0
23.05.2019 19:00:00 17,8 14,5 7 4 10 6 NNE 1016,3 - 0,0
23.05.2019 18:00:00 18,3 14,2 3 2 13 7 NE 1016,5 - 0,0
23.05.2019 17:00:00 18,6 14,3 6 4 14 8 N 1016,6 - 0,0
23.05.2019 16:00:00 18,7 14,6 10 5 23 12 E 1016,9 - 0,0
23.05.2019 15:00:00 18,8 15,1 17 9 28 15 ENE 1017,2 - 0,0
23.05.2019 14:00:00 18,8 14,9 21 11 33 18 E 1017,5 13 0,0
23.05.2019 13:00:00 18,7 14,6 21 12 30 16 E 1017,8 - 0,0
23.05.2019 12:00:00 17,7 14,6 16 8 22 12 E 1018,2 - 0,0
23.05.2019 11:00:00 17,7 15,0 10 6 15 8 ENE 1018,2 10 0,0
23.05.2019 10:00:00 16,8 14,4 7 4 13 7 E 1018,3 - 0,0
23.05.2019 09:00:00 16,3 14,5 7 4 13 7 ENE 1018,2 - 0,0
23.05.2019 08:00:00 16,7 14,2 5 3 10 5 ENE 1017,6 10 0,0
23.05.2019 07:00:00 14,9 13,6 6 3 14 7 W 1017,4 - 0,0
23.05.2019 06:00:00 14,2 12,9 11 6 17 9 WSW 1017,5 - 0,0
23.05.2019 05:00:00 14,3 13,0 13 7 19 11 SW 1017,4 10 0,0
23.05.2019 04:00:00 14,5 13,2 10 5 23 12 WSW 1017,4 - 0,0
23.05.2019 03:00:00 15,4 14,4 16 9 29 16 WSW 1017,6 - 0,0
23.05.2019 02:00:00 15,6 14,3 25 13 32 18 W 1017,6 - 0,0
23.05.2019 01:00:00 15,6 13,4 16 9 27 15 W 1017,6 - 0,0
23.05.2019 00:00:00 15,8 14,0 15 8 29 15 SW 1017,4 - 0,0
22.05.2019 23:00:00 16,2 14,2 11 6 22 12 SW 1017,4 - 0,0
22.05.2019 22:00:00 15,9 14,1 0 0 12 6 N 1016,9 - 0,0
22.05.2019 21:00:00 15,4 13,2 7 4 15 8 SE 1016,4 - 0,0
22.05.2019 20:00:00 17,2 14,1 7 4 26 14 E 1016,1 - 0,0
22.05.2019 19:00:00 18,2 13,9 20 11 27 15 E 1015,5 - 0,0
22.05.2019 18:00:00 18,4 13,7 20 11 35 19 E 1015,6 - 0,0
22.05.2019 17:00:00 19,3 12,8 21 11 33 18 E 1015,3 15 0,0
22.05.2019 16:00:00 20,1 13,5 21 12 43 23 E 1015,3 - 0,0
22.05.2019 15:00:00 20,4 14,3 24 13 45 25 E 1015,5 - 0,0
22.05.2019 14:00:00 20,8 14,0 25 14 50 27 ESE 1015,6 15 0,0
22.05.2019 13:00:00 19,8 13,9 29 16 49 27 E 1015,7 - 0,0
22.05.2019 12:00:00 19,7 13,4 32 18 45 24 E 1015,7 - 0,0
22.05.2019 11:00:00 19,9 14,0 26 14 41 22 ESE 1015,4 15 0,0
22.05.2019 10:00:00 19,0 14,5 18 10 28 15 SE 1015,1 - 0,0
22.05.2019 09:00:00 17,6 12,7 4 2 21 12 W 1015,1 - 0,0
22.05.2019 08:00:00 17,0 12,9 5 3 29 16 NW 1014,9 15 0,0
22.05.2019 07:00:00 16,6 12,3 19 10 36 19 SSE 1014,8 - 0,0
22.05.2019 06:00:00 16,1 12,5 27 15 38 20 SE 1014,3 - 0,0
22.05.2019 05:00:00 15,6 13,1 20 11 27 15 ESE 1014,3 15 0,0
22.05.2019 04:00:00 16,2 12,2 16 9 26 14 ESE 1014,7 - 0,0
22.05.2019 03:00:00 16,4 10,9 6 3 32 17 WSW 1014,8 - 0,0
22.05.2019 02:00:00 17,0 10,6 14 8 34 18 SW 1014,8 - 0,0
22.05.2019 01:00:00 16,6 11,7 6 3 36 19 W 1015,2 - 0,0
22.05.2019 00:00:00 18,4 8,6 22 12 64 35 SW 1014,9 - 0,0
21.05.2019 23:00:00 18,0 9,3 36 19 68 37 SW 1014,7 - 0,0
21.05.2019 22:00:00 18,7 8,4 40 21 83 45 WSW 1014,1 - 0,0
21.05.2019 21:00:00 17,7 10,1 41 22 74 40 WSW 1013,5 - 0,0
21.05.2019 20:00:00 17,9 10,5 34 19 86 46 WSW 1013,6 - 0,0
21.05.2019 19:00:00 18,1 11,4 52 28 83 45 W 1012,3 - 0,0
21.05.2019 18:00:00 19,1 11,9 20 11 72 39 SW 1013,4 - 0,0
21.05.2019 17:00:00 18,9 11,7 36 20 81 44 WSW 1013,2 15 0,0
21.05.2019 16:00:00 19,5 11,5 23 13 53 29 SW 1013,3 - 0,0
21.05.2019 15:00:00 19,8 12,1 28 15 66 35 SW 1013,3 - 0,0
21.05.2019 14:00:00 19,1 12,4 28 15 61 33 WSW 1012,8 15 0,0
21.05.2019 13:00:00 19,5 12,5 20 11 77 42 SW 1012,7 - 0,0
21.05.2019 12:00:00 18,6 12,6 51 28 81 44 WSW 1011,8 - 0,0
21.05.2019 11:00:00 18,3 12,1 29 16 74 40 SW 1011,9 15 0,0
21.05.2019 10:00:00 17,7 12,4 28 15 81 44 SW 1011,2 - 0,0
21.05.2019 09:00:00 17,1 12,4 55 30 89 48 W 1010,2 - 0,0
21.05.2019 08:00:00 16,8 12,3 34 19 82 44 SW 1010,0 12 0,0
21.05.2019 07:00:00 16,1 12,3 44 24 100 54 WSW 1009,3 - 0,0
21.05.2019 06:00:00 15,7 12,1 64 35 101 54 WSW 1008,3 - 0,0
21.05.2019 05:00:00 15,6 12,0 47 25 101 55 WSW 1008,8 - 0,0
21.05.2019 04:00:00 15,7 12,1 41 22 77 41 WSW 1009,5 - 0,0
21.05.2019 03:00:00 16,1 11,9 42 23 93 50 WSW 1009,2 - 0,0
21.05.2019 02:00:00 16,3 11,9 39 21 71 39 WSW 1009,6 - 0,0
21.05.2019 01:00:00 16,5 11,6 27 15 54 29 SW 1010,0 - 0,0
21.05.2019 00:00:00 16,0 12,0 13 7 53 29 WSW 1009,9 - 0,0
20.05.2019 23:00:00 16,0 12,2 35 19 65 35 WSW 1009,4 - 0,0
20.05.2019 22:00:00 15,6 12,7 27 15 53 29 WSW 1009,1 - 0,0
20.05.2019 21:00:00 15,4 13,1 38 21 61 33 WSW 1008,7 - 0,0
20.05.2019 20:00:00 15,7 13,0 23 12 35 19 W 1009,1 - 0,0
20.05.2019 19:00:00 16,3 13,0 21 11 35 19 W 1009,0 - 0,0
20.05.2019 18:00:00 16,0 12,9 22 12 35 19 W 1009,0 - 0,0
20.05.2019 17:00:00 16,4 12,6 24 13 48 26 W 1008,8 20 0,0

tt = Température de l'air
td = dewpoint
ff = Vitesse du vent
fx = gusts
dd = Direction du vent
ppp = reduced air pressure
vv = visibility
rr = Quantités de précipitations

stations d'obs. à proximité